This is the latest recevied weather packets stored in our database for station/object WX2NJ-13. If no packets are shown the sender has not sent any weather packets the latest 10 day(s).
| Time | Temp. | Humidity | Pressure | Rain* | Wind** | Luminosity | Snow |
|---|---|---|---|---|---|---|---|
| 1778050436 | 16.11° C | 79% | 1012.1 hPa | 0 mm | 0.45 m/s, 142° | - | - |
| 1778050137 | 16.67° C | 79% | 1012.1 hPa | 0 mm | 1.34 m/s, 176° | - | - |
| 1778049839 | 16.67° C | 79% | 1012 hPa | 0 mm | 1.34 m/s, 174° | - | - |
| 1778049537 | 16.67° C | 78% | 1012 hPa | 0 mm | 1.34 m/s, 184° | - | - |
| 1778049239 | 16.67° C | 78% | 1012.1 hPa | 0 mm | 1.34 m/s, 181° | - | - |
| 1778048940 | 16.67° C | 78% | 1012.1 hPa | 0 mm | 0.89 m/s, 159° | - | - |
| 1778048639 | 16.67° C | 78% | 1012 hPa | 0 mm | 0.89 m/s, 150° | - | - |
| 1778048341 | 16.67° C | 78% | 1012 hPa | 0 mm | 0.89 m/s, 184° | - | - |
| 1778048042 | 16.67° C | 78% | 1012 hPa | 0 mm | 1.34 m/s, 138° | - | - |
| 1778047740 | 16.67° C | 78% | 1012 hPa | 0 mm | 2.24 m/s, 134° | - | - |
| 1778047442 | 16.67° C | 78% | 1012 hPa | 0 mm | 1.79 m/s, 187° | - | - |
| 1778047143 | 16.67° C | 77% | 1012.1 hPa | 0 mm | 1.79 m/s, 181° | - | - |
| 1778046842 | 16.67° C | 78% | 1012.2 hPa | 0 mm | 0.89 m/s, 201° | - | - |
| 1778046543 | 16.67° C | 77% | 1012.2 hPa | 0 mm | 0.89 m/s, 155° | - | - |
| 1778046245 | 16.67° C | 77% | 1012.2 hPa | 0 mm | 0.89 m/s, 221° | - | - |
| 1778045943 | 16.67° C | 77% | 1012.2 hPa | 0 mm | 1.34 m/s, 226° | - | - |
| 1778045645 | 16.67° C | 77% | 1012.2 hPa | 0 mm | 1.34 m/s, 200° | - | - |
| 1778045346 | 16.67° C | 77% | 1012.3 hPa | 0 mm | 1.34 m/s, 101° | - | - |
| 1778045045 | 16.67° C | 76% | 1012.4 hPa | 0 mm | 0.89 m/s, 195° | - | - |
| 1778044746 | 16.67° C | 76% | 1012.4 hPa | 0 mm | 1.34 m/s, 186° | - | - |
| 1778044447 | 16.67° C | 76% | 1012.4 hPa | 0 mm | 0.45 m/s, 200° | - | - |
| 1778044146 | 16.67° C | 76% | 1012.5 hPa | 0 mm | 0.89 m/s, 195° | - | - |
| 1778043847 | 16.67° C | 76% | 1012.6 hPa | 0 mm | 1.34 m/s, 167° | - | - |
| 1778043549 | 16.67° C | 75% | 1012.6 hPa | 0 mm | 0.45 m/s, 162° | - | - |
| 1778043247 | 16.67° C | 75% | 1012.6 hPa | 0 mm | 1.34 m/s, 23° | - | - |
* Rain latest hour (hover to see other rain measurements)
** Current wind speed in m/s (hover to see current wind gust speed)